Location: Coupvray
(48.8929°N, 2.7967°E)
Time: 22:24:14
(UTC+00:00)

Cosmos 1241 Rocket - Pass Details

Date: 03 November 2020
Orbit: 929 x 1018 km, 65.8° (Epoch: 27 November)

Event Time Altitude Azimuth Distance (km) Brightness Sun altitude
Rises 21:49:25 0° 321° (NW) 3,738 8.2 -50.5°
Reaches altitude 10° 21:52:13 10° 330° (NNW) 2,795 7.3 -50.8°
Enters shadow 21:52:31 11° 331° (NNW) 2,699 7.2 -50.8°
